Theta_e
299 295 292 296 296 296 295 293 293 297 301 300 299 300 304 307 305 305 306 306 306 307 307 310 311 311 313 314 316 317 317 318 318 317 316 317 317 319 320 322 324 324 325 322
295 292 299 300 299 296 295 293 293 298 301 299 299 299 303 305 305 306 307 305 305 305 308 310 310 311 314 315 316 317 317 318 318 316 319 318 318 319 320 321 326 327 324 322
291 295 302 301 297 295 294 293 294 295 299 300 298 297 300 304 305 306 306 305 305 307 308 310 310 311 313 315 316 317 317 317 318 318 319 318 318 318 319 319 320 321 322 323
293 298 297 297 295 296 292 299 298 297 294 291 298 287 295 299 301 302 304 304 305 306 309 311 311 309 313 314 316 318 318 317 317 321 318 316 315 314 316 317 318 319 322 323
291 294 294 294 295 298 295 301 299 298 294 292 295 289 293 297 298 300 302 302 303 305 309 310 310 311 313 314 315 317 318 316 319 319 318 318 315 316 317 317 316 317 320 324
293 300 297 296 300 300 300 297 296 295 292 286 293 290 292 295 298 300 302 304 305 305 308 310 311 311 311 313 315 316 315 317 318 319 319 318 316 316 314 315 315 315 316 322
292 294 297 299 295 298 296 291 284 280 284 285 294 290 294 299 302 303 303 302 304 306 309 310 310 310 311 312 314 314 313 316 318 319 319 317 317 317 315 314 314 313 314 317
287 285 294 298 296 293 294 294 286 280 281 285 294 289 295 302 304 304 304 303 305 306 309 310 311 311 311 312 314 315 313 315 315 318 318 316 318 315 314 315 315 314 314 314
287 288 297 298 298 297 293 290 296 288 289 286 289 294 299 301 301 303 303 305 304 306 309 310 311 310 311 312 313 314 313 312 313 317 317 317 318 315 316 315 315 314 315 317
291 285 295 297 299 298 293 296 287 286 280 280 287 289 292 296 299 303 303 303 304 307 309 311 311 309 310 312 313 313 314 313 313 317 317 319 321 318 316 316 316 315 315 316
290 289 290 295 293 291 289 291 289 291 289 283 281 288 296 298 299 303 303 304 305 308 310 311 310 310 309 310 310 311 314 312 314 316 316 322 320 320 318 317 316 316 315 317
293 288 287 290 295 298 296 292 292 287 286 287 288 291 299 298 299 304 304 306 306 308 310 310 310 308 307 308 307 310 313 312 314 315 316 320 321 320 318 317 316 316 316 317
293 287 283 285 290 293 291 293 293 291 290 288 286 291 302 300 299 305 304 305 307 308 309 308 309 309 308 308 308 312 312 312 312 314 315 319 319 319 317 316 317 317 317 318
293 288 288 285 288 292 290 293 293 293 289 289 290 291 297 300 302 303 304 306 307 309 311 310 309 309 308 309 310 313 313 312 312 312 317 318 317 318 318 318 318 318 319 319
288 282 291 292 293 295 294 294 294 292 294 291 294 293 297 302 303 306 306 306 307 309 309 310 309 309 308 308 310 311 314 312 313 311 317 318 316 318 319 319 319 319 319 320
288 282 289 291 293 293 292 295 295 296 295 295 295 294 299 304 307 307 307 307 308 309 311 311 311 310 310 310 310 311 313 311 312 311 317 317 316 318 319 316 317 318 318 319
285 285 284 285 293 291 288 293 294 296 297 297 292 296 300 302 307 308 307 308 309 310 312 311 311 310 310 312 313 311 312 310 311 310 315 317 316 318 318 317 317 317 315 314
286 284 284 281 288 281 292 298 298 298 298 298 296 299 302 304 310 311 311 309 309 311 312 313 313 312 310 311 312 312 311 311 311 310 313 313 314 317 316 315 316 313 311 312
295 286 282 281 282 290 295 299 297 295 295 300 299 300 302 304 307 306 311 313 312 312 314 314 315 314 311 310 312 312 309 311 312 311 312 311 314 315 314 313 314 311 310 309
292 289 285 285 280 282 292 298 302 302 291 300 304 303 300 304 301 303 310 312 311 312 314 314 315 314 311 310 311 312 309 311 311 312 312 311 313 316 314 314 313 311 310 309
286 286 282 282 282 292 296 299 301 291 290 297 303 304 301 303 306 310 312 312 313 312 313 314 314 313 311 311 312 311 308 310 313 314 312 310 311 317 315 314 314 311 310 309
285 285 288 288 283 285 297 297 290 294 297 298 298 304 303 305 306 308 312 313 311 310 311 313 313 313 312 312 312 311 308 310 313 313 313 310 308 317 317 315 314 313 311 308
285 288 288 289 290 298 298 296 298 298 297 298 298 300 306 305 303 308 311 313 313 312 312 314 314 312 312 312 313 311 311 308 310 312 312 310 308 312 318 315 314 314 312 310
290 293 290 290 296 296 297 299 299 301 299 300 301 301 306 305 305 306 312 313 313 312 312 314 314 311 310 312 313 314 312 310 309 310 309 310 309 310 317 318 317 316 314 312
291 293 289 290 295 296 298 297 298 300 301 301 302 302 304 304 309 305 309 313 315 314 313 315 314 312 312 313 313 314 313 311 309 309 308 307 311 313 316 317 316 318 318 316
294 291 288 287 294 294 295 297 299 300 299 301 301 302 304 304 307 311 308 313 316 315 315 315 315 314 313 313 313 313 315 313 310 308 307 307 310 314 317 316 308 296 298 302
Wind_Speed
9 9 20 22 19 13 13 10 16 16 5 7 9 9 17 19 9 15 15 15 13 14 3 8 11 12 12 9 9 8 9 7 4 2 2 0 3 2 2 2 5 5 3 5
6 25 17 10 13 15 12 10 17 15 16 4 13 15 17 18 14 16 20 13 12 4 4 7 12 14 13 11 9 8 8 7 4 2 2 2 2 2 1 2 3 3 5 5
24 14 15 16 13 16 17 20 20 19 11 7 10 12 17 20 10 10 8 6 6 11 11 12 14 13 11 12 10 9 8 8 4 4 2 1 1 1 2 1 2 1 3 4
17 23 13 23 20 19 19 18 19 16 8 9 4 7 6 8 11 7 10 7 10 8 7 12 15 12 12 9 8 8 8 7 5 6 2 3 2 1 1 1 1 1 1 3
18 18 26 18 29 18 19 13 13 8 8 6 17 4 6 4 10 11 11 9 10 8 10 15 14 12 8 8 8 7 7 6 6 5 4 3 2 1 0 1 2 1 2 2
17 10 19 27 8 18 9 3 4 7 1 9 21 5 12 7 9 6 6 6 2 7 10 10 8 9 7 6 7 7 8 5 6 5 4 5 4 4 2 1 1 1 1 2
8 21 6 12 22 13 11 7 3 4 5 9 8 6 16 11 11 12 10 4 8 8 11 14 16 10 8 8 7 7 7 6 5 4 5 4 5 5 4 3 2 1 1 1
14 12 27 14 20 13 24 17 8 7 5 5 7 9 14 11 12 10 9 6 9 9 9 12 13 10 9 9 8 8 8 5 5 5 5 4 5 3 2 2 2 2 3 3
14 15 2 22 11 20 14 17 12 3 1 2 5 8 10 3 3 3 5 8 9 9 11 13 11 9 9 9 9 9 7 5 6 6 5 4 5 4 4 3 3 2 4 2
3 1 9 16 18 19 9 10 10 4 5 4 5 5 8 3 3 5 7 8 7 7 9 10 9 9 7 8 7 7 7 8 5 6 5 5 5 5 5 4 4 4 3 2
5 2 5 14 18 21 7 16 3 8 6 7 1 9 9 10 9 12 9 9 12 12 12 12 9 8 8 7 7 7 6 6 5 5 4 5 5 5 5 4 4 4 3 3
7 6 13 10 2 18 24 20 20 9 9 2 5 14 4 7 9 9 9 9 8 9 13 11 11 9 8 8 7 7 6 6 6 5 5 5 6 5 5 5 5 4 4 3
11 7 4 4 6 4 15 24 16 6 4 7 6 10 1 4 7 10 10 8 10 10 10 9 8 10 9 8 7 7 7 7 6 5 5 6 5 5 4 4 5 4 5 5
6 6 16 16 6 5 5 17 18 15 10 11 10 6 3 3 7 7 7 8 12 13 13 11 9 9 8 8 8 7 6 7 6 6 6 6 6 5 5 5 6 5 5 6
4 5 7 21 19 6 6 12 20 21 20 16 15 9 7 9 11 15 9 9 11 11 11 13 11 10 8 8 7 7 6 7 6 6 6 7 6 5 6 6 5 6 5 4
6 6 11 8 15 24 19 5 19 21 12 10 9 9 8 6 9 7 12 14 14 15 15 14 12 11 11 11 9 7 7 7 6 7 7 6 6 5 7 6 6 6 6 4
2 5 11 10 9 8 16 22 7 10 9 14 9 10 7 4 10 12 11 15 17 17 17 16 16 14 12 11 11 9 8 6 7 7 6 6 6 6 6 7 6 6 5 4
8 5 4 7 3 8 10 8 15 10 9 10 3 10 13 13 18 15 16 19 15 15 17 16 14 12 12 10 8 7 8 8 8 7 7 6 6 6 7 7 6 5 4 5
12 5 4 3 4 5 3 9 8 3 6 8 8 8 9 7 6 2 8 15 21 20 19 15 14 14 12 12 10 9 8 8 8 8 7 7 6 7 7 7 7 4 5 3
13 12 3 4 3 8 5 18 16 11 3 16 17 14 2 11 9 7 11 12 9 10 16 15 13 12 12 11 10 12 10 10 11 10 9 7 7 7 7 8 7 4 4 5
9 1 5 2 5 3 17 23 19 9 6 18 18 15 14 8 11 17 14 14 15 16 17 13 13 15 16 13 13 13 11 14 13 10 7 8 7 9 7 7 5 6 5 6
2 6 1 1 3 3 23 9 11 6 8 14 17 14 14 16 6 7 17 18 16 14 13 14 14 14 12 14 15 13 14 13 12 11 9 8 8 7 7 8 5 6 7 7
3 4 4 4 4 2 7 3 4 4 6 12 16 19 14 14 8 9 13 16 18 18 17 16 16 14 13 15 16 15 14 12 12 11 11 8 8 7 9 8 7 5 6 6
2 3 2 9 2 8 10 5 4 7 8 13 15 16 13 11 6 9 12 14 14 13 14 14 14 13 14 15 16 17 13 14 14 13 11 8 9 7 6 6 8 7 6 5
4 3 3 5 12 13 5 11 10 12 12 14 17 16 14 14 10 5 9 15 15 16 13 14 16 15 16 16 16 13 14 14 14 13 10 9 9 10 7 6 7 8 8 10
4 3 1 3 12 8 10 10 14 9 12 13 17 21 18 15 14 9 3 9 16 15 14 14 15 14 14 15 15 14 15 15 14 12 10 9 8 8 8 7 3 8 4 9
Wind_Direction
184 196 211 205 209 212 225 238 247 262 230 228 236 250 275 285 288 276 273 255 227 220 189 154 148 145 143 148 146 162 149 181 144 177 211 328 255 290 284 235 239 219 200 213
199 227 213 211 214 222 235 252 259 280 266 260 278 274 273 286 276 269 264 249 235 131 119 144 151 151 161 151 156 156 162 169 172 169 204 171 207 250 252 295 253 227 212 215
205 226 204 212 217 220 227 232 249 251 293 219 278 280 279 280 289 273 246 222 172 185 178 164 162 156 150 156 161 161 169 169 179 191 122 81 359 20 23 322 292 274 225 213
229 222 192 209 227 215 233 221 242 254 275 271 125 285 293 280 289 285 264 211 228 199 146 159 160 156 159 166 152 153 161 163 184 178 146 161 180 182 235 251 269 254 231 154
205 203 221 231 220 208 239 228 245 251 254 302 274 272 258 269 285 267 265 229 235 192 159 162 159 150 164 142 156 159 155 168 185 167 151 160 165 180 124 297 78 321 346 171
219 205 213 223 209 219 241 236 278 262 198 254 262 161 280 229 225 264 259 281 140 137 122 118 121 143 144 134 140 144 158 185 185 165 169 166 157 147 160 197 112 331 322 66
182 229 228 182 218 217 195 115 272 308 203 226 223 188 238 260 243 240 241 194 143 132 126 140 156 155 143 149 149 152 162 188 173 187 167 165 153 155 179 180 172 127 112 89
192 214 211 202 205 191 211 191 176 202 186 219 186 235 253 235 252 229 239 138 126 135 139 156 159 156 151 153 155 161 178 175 169 185 182 147 154 156 168 151 136 152 121 144
198 232 227 200 198 190 206 206 185 350 204 74 210 287 315 233 268 192 146 138 154 147 151 158 158 155 151 155 166 171 175 170 183 185 174 167 157 163 154 119 116 148 121 147
236 189 211 206 199 214 170 155 190 197 217 237 264 251 233 267 214 187 156 162 134 129 143 159 155 157 160 163 166 172 177 182 187 173 191 177 161 175 153 132 141 141 127 132
225 152 292 177 198 193 168 229 197 159 179 178 154 258 211 220 190 192 200 168 160 161 164 163 157 162 164 158 158 180 180 178 186 176 201 164 154 170 162 144 153 157 145 151
302 210 249 208 222 189 202 205 211 203 212 233 165 256 247 214 196 167 185 167 153 166 163 157 158 150 156 167 162 180 187 186 195 185 186 158 154 155 166 153 163 169 155 149
342 266 241 5 276 183 204 204 200 206 90 211 158 258 286 192 186 179 168 157 154 159 144 144 150 160 169 174 166 174 178 188 177 166 146 139 151 152 161 148 149 162 145 137
338 262 225 220 205 163 171 196 197 194 209 220 234 263 212 140 152 157 163 167 162 164 160 156 159 168 173 180 166 169 181 181 169 160 144 153 156 159 140 131 144 142 137 132
15 269 285 245 232 282 194 179 198 203 208 196 230 207 213 187 183 200 157 137 146 156 164 171 169 174 175 178 173 171 176 174 165 157 150 178 130 149 120 120 135 121 123 133
351 287 336 268 223 228 252 256 197 205 202 215 174 218 202 180 88 138 173 161 174 176 176 178 169 175 180 183 182 173 175 177 159 160 168 171 138 143 132 127 144 137 136 129
252 355 352 269 226 215 248 236 211 214 194 179 168 215 150 122 170 179 175 184 179 181 178 178 178 179 184 186 179 176 177 161 163 165 170 165 165 148 148 140 141 143 139 130
261 273 227 275 239 194 242 197 209 202 199 220 124 168 172 172 195 188 193 177 183 180 180 188 180 175 182 181 180 162 150 167 167 167 171 172 162 153 144 144 145 131 114 124
294 183 249 241 222 277 183 37 15 151 244 25 310 185 195 170 108 281 189 187 183 181 185 185 180 177 170 173 175 155 155 163 168 174 176 177 159 141 147 157 155 143 126 127
352 173 164 339 266 192 15 323 316 290 133 3 358 331 190 135 163 232 178 183 191 189 173 180 176 165 165 179 161 160 166 164 180 182 184 176 155 151 162 162 159 154 139 146
351 106 230 320 276 3 340 319 302 122 284 325 331 328 284 189 189 201 177 180 181 175 174 166 163 171 181 165 163 173 168 180 186 180 170 170 167 157 164 147 151 141 135 132
312 313 1 218 283 289 343 10 53 289 308 320 324 317 303 293 233 165 174 175 164 156 153 166 171 179 169 167 170 173 184 185 173 170 172 176 170 163 156 153 147 144 138 143
223 318 325 320 350 300 3 107 257 261 307 329 318 317 323 273 244 184 179 175 178 170 172 173 176 169 167 172 177 179 189 166 167 166 177 179 172 167 160 157 152 141 149 149
232 305 279 325 104 292 292 260 329 1 322 324 324 321 338 312 342 247 168 177 169 169 170 170 162 168 174 177 184 192 165 169 164 171 178 174 171 171 167 166 165 164 165 162
217 229 346 307 291 324 182 347 343 332 330 328 337 339 327 340 360 6 239 175 177 175 169 165 173 174 181 178 183 174 170 170 172 175 175 175 180 183 173 178 177 181 189 178
191 175 159 236 287 291 276 291 309 309 318 326 343 334 343 350 350 339 272 223 175 179 170 170 178 175 174 179 179 175 171 176 173 178 176 176 172 178 181 169 146 37 9 199